GW7317 Weather Reports


time (UTC)temp
C
wind
direction
speed
KPH
gust
KPH
rain 1hr
cm
rain 24hr
cm
rain mn
cm
humidity
%
barometer
mb
20260505192959 29 235 1.6 3.2 0.00 0.00 0.00 67 1009.0
20260505192457 28 206 4.8 4.8 0.00 0.00 0.00 69 1009.1
20260505191954 28 228 1.6 3.2 0.00 0.00 0.00 67 1009.2
20260505191453 28 226 1.6 1.6 0.00 0.00 0.00 68 1009.3
20260505190949 28 221 1.6 4.8 0.00 0.00 0.00 68 1009.2
20260505190444 28 207 6.4 6.4 0.00 0.00 0.00 68 1009.3
20260505185940 28 167 3.2 4.8 0.00 0.00 0.00 67 1009.4
20260505185438 28 160 0.0 3.2 0.00 0.00 0.00 69 1009.3
20260505184934 28 184 1.6 1.6 0.00 0.00 0.00 70 1009.5
20260505184431 28 245 0.0 3.2 0.00 0.00 0.00 71 1009.3
20260505183927 27 147 1.6 3.2 0.00 0.00 0.00 72 1009.5
20260505183425 27 197 3.2 4.8 0.00 0.00 0.00 71 1009.6
20260505182921 28 160 0.0 4.8 0.00 0.00 0.00 71 1009.5
20260505182418 28 236 0.0 0.0 0.00 0.00 0.00 72 1009.7
20260505181914 27 244 3.2 6.4 0.00 0.00 0.00 72 1009.6
20260505181412 27 191 1.6 4.8 0.00 0.00 0.00 73 1009.7
20260505180909 27 135 6.4 6.4 0.00 0.00 0.00 74 1009.7
20260505180405 27 150 0.0 3.2 0.00 0.00 0.00 75 1009.8
20260505175902 27 193 1.6 1.6 0.00 0.00 0.00 74 1009.9
20260505175358 27 208 1.6 1.6 0.00 0.00 0.00 73 1009.7
20260505174854 27 289 1.6 3.2 0.00 0.00 0.00 72 1009.9
20260505174352 27 223 1.6 3.2 0.00 0.00 0.00 73 1009.9
20260505173848 27 213 3.2 3.2 0.00 0.00 0.00 75 1009.9
20260505173345 26 233 3.2 3.2 0.00 0.00 0.00 76 1009.8
20260505172842 26 201 0.0 3.2 0.00 0.00 0.00 76 1010.0
20260505172339 26 201 0.0 1.6 0.00 0.00 0.00 77 1010.2
20260505171839 26 218 1.6 4.8 0.00 0.00 0.00 75 1010.2
20260505171336 26 286 1.6 3.2 0.00 0.00 0.00 77 1010.1
20260505170833 26 209 1.6 1.6 0.00 0.00 0.00 79 1010.2
20260505170329 26 201 0.0 3.2 0.00 0.00 0.00 81 1010.3
20260505165825 25 155 0.0 4.8 0.00 0.00 0.00 83 1010.2
20260505165320 25 151 1.6 3.2 0.00 0.00 0.00 83 1010.3
20260505164816 25 176 1.6 3.2 0.00 0.00 0.00 81 1010.2
20260505164313 26 212 3.2 3.2 0.00 0.00 0.00 79 1010.3
20260505163812 26 147 1.6 3.2 0.00 0.00 0.00 78 1010.2
20260505163310 26 173 1.6 9.7 0.00 0.00 0.00 78 1010.3
20260505162808 26 169 1.6 3.2 0.00 0.00 0.00 78 1010.2
20260505162306 26 184 1.6 3.2 0.00 0.00 0.00 78 1010.0
20260505161801 26 204 1.6 1.6 0.00 0.00 0.00 79 1010.1
20260505161258 26 238 1.6 1.6 0.00 0.00 0.00 80 1010.2
20260505160755 26 218 0.0 3.2 0.00 0.00 0.00 79 1010.0
20260505160253 25 209 1.6 4.8 0.00 0.00 0.00 79 1010.2
20260505153232 25 197 1.6 1.6 0.00 0.00 0.00 83 1010.1
20260505152729 25 249 3.2 6.4 0.00 0.00 0.00 82 1009.8
20260505152226 25 209 3.2 4.8 0.00 0.00 0.00 82 1009.7
20260505151720 25 157 3.2 9.7 0.00 0.00 0.00 82 1009.8
20260505151218 25 166 0.0 0.0 0.00 0.00 0.00 82 1009.9
20260505150714 25 219 4.8 6.4 0.00 0.00 0.00 81 1009.7
20260505150212 25 321 1.6 4.8 0.00 0.00 0.00 80 1009.9
20260505140645 24 229 1.6 6.4 0.00 0.00 0.00 83 1009.6
20260505140142 24 207 1.6 3.2 0.00 0.00 0.00 83 1009.5
20260505130106 23 202 3.2 3.2 0.00 0.00 0.00 87 1009.4
20260505124555 22 233 3.2 3.2 0.00 0.00 0.00 87 1009.1
20260505124051 22 184 0.0 1.6 0.00 0.00 0.00 88 1009.1
20260505123548 22 225 1.6 3.2 0.00 0.00 0.00 88 1009.5
20260505123044 22 237 1.6 1.6 0.00 0.00 0.00 88 1009.5
20260505122541 22 210 0.0 1.6 0.00 0.00 0.00 89 1009.4
20260505122038 22 179 0.0 3.2 0.00 0.00 0.00 89 1009.1
20260505121534 22 167 1.6 3.2 0.00 0.00 0.00 89 1009.3
20260505121032 22 180 0.0 0.0 0.00 0.00 0.00 90 1009.5
20260505120528 22 180 1.6 3.2 0.00 0.00 0.00 90 1009.2
20260505120023 22 200 0.0 0.0 0.00 0.00 0.00 90 1008.9
20260505115518 21 193 0.0 3.2 0.00 0.00 0.00 90 1008.9
20260505115016 21 210 1.6 3.2 0.00 0.00 0.00 90 1009.0
20260505114513 21 196 0.0 1.6 0.00 0.00 0.00 90 1009.0
20260505114009 21 184 3.2 3.2 0.00 0.00 0.00 90 1008.9
20260505113506 21 184 0.0 0.0 0.00 0.00 0.00 90 1009.2
20260505113002 21 210 0.0 1.6 0.00 0.00 0.00 90 1009.5
20260505112459 21 202 0.0 1.6 0.00 0.00 0.00 90 1009.2
20260505111956 21 199 0.0 1.6 0.00 0.00 0.00 90 1009.0
20260505111450 21 197 1.6 1.6 0.00 0.00 0.00 90 1009.0
20260505110946 21 192 0.0 1.6 0.00 0.00 0.00 90 1009.0
20260505110443 21 186 0.0 0.0 0.00 0.00 0.00 90 1009.2
20260505101914 21 199 0.0 0.0 0.00 0.00 0.00 90 1009.2
20260505101409 21 199 0.0 1.6 0.00 0.00 0.00 89 1009.2
20260505100905 21 199 0.0 3.2 0.00 0.00 0.00 89 1009.1
20260505100402 21 203 1.6 1.6 0.00 0.00 0.00 89 1009.0
20260505095857 21 202 0.0 1.6 0.00 0.00 0.00 89 1009.2
20260505095355 21 190 0.0 1.6 0.00 0.00 0.00 88 1009.3
20260505094851 21 191 0.0 0.0 0.00 0.00 0.00 88 1009.4
20260505094348 21 210 0.0 1.6 0.00 0.00 0.00 88 1009.1
20260505093843 21 209 0.0 3.2 0.00 0.00 0.00 88 1009.2
20260505093341 21 204 0.0 0.0 0.00 0.00 0.00 88 1009.0
20260505092838 21 202 3.2 3.2 0.00 0.00 0.00 88 1009.3
20260505092336 21 188 0.0 1.6 0.00 0.00 0.00 87 1009.2
20260505091833 21 188 0.0 1.6 0.00 0.00 0.00 87 1009.5
20260505091331 21 211 0.0 0.0 0.00 0.00 0.00 87 1009.4
20260505090829 21 205 0.0 1.6 0.00 0.00 0.00 87 1009.3
20260505090327 21 202 0.0 3.2 0.00 0.00 0.00 87 1009.5
20260505085824 21 173 0.0 0.0 0.00 0.00 0.00 87 1009.5
20260505085322 21 173 0.0 1.6 0.00 0.00 0.00 87 1009.5
20260505084819 21 173 0.0 0.0 0.00 0.00 0.00 87 1009.7
20260505084318 21 180 1.6 1.6 0.00 0.00 0.00 87 1009.6
20260505083814 21 179 0.0 1.6 0.00 0.00 0.00 87 1009.4
20260505083311 21 182 0.0 1.6 0.00 0.00 0.00 87 1009.7
20260505082808 21 205 0.0 1.6 0.00 0.00 0.00 87 1009.7
20260505082305 21 205 1.6 1.6 0.00 0.00 0.00 86 1009.7
20260505081801 21 126 3.2 6.4 0.00 0.00 0.00 86 1009.7
20260505081258 21 191 0.0 1.6 0.00 0.00 0.00 86 1009.8
20260505080755 21 186 1.6 1.6 0.00 0.00 0.00 85 1009.9
20260505080250 21 183 1.6 1.6 0.00 0.00 0.00 85 1009.7
20260505075746 21 182 1.6 3.2 0.00 0.00 0.00 85 1010.0
20260505075243 21 209 0.0 3.2 0.00 0.00 0.00 85 1009.8
20260505074741 21 119 0.0 1.6 0.00 0.00 0.00 85 1010.0
20260505074238 21 157 0.0 3.2 0.00 0.00 0.00 84 1010.0
20260505073735 21 166 1.6 3.2 0.00 0.00 0.00 85 1009.9
20260505073233 21 169 1.6 1.6 0.00 0.00 0.00 84 1009.9
20260505072729 21 194 1.6 1.6 0.00 0.00 0.00 84 1010.1
20260505072226 21 221 0.0 1.6 0.00 0.00 0.00 84 1010.0
20260505071721 21 214 0.0 3.2 0.00 0.00 0.00 84 1010.2
20260505071219 21 188 1.6 1.6 0.00 0.00 0.00 84 1010.4
20260505070716 21 190 0.0 0.0 0.00 0.00 0.00 83 1010.5
20260505070212 21 191 0.0 0.0 0.00 0.00 0.00 83 1010.2
20260505065708 21 186 0.0 1.6 0.00 0.00 0.00 83 1010.3
20260505065204 21 196 0.0 0.0 0.00 0.00 0.00 83 1010.3
20260505064701 21 196 0.0 1.6 0.00 0.00 0.00 82 1010.4
20260505064200 21 198 0.0 3.2 0.00 0.00 0.00 82 1010.5
20260505063657 21 207 0.0 3.2 0.00 0.00 0.00 82 1010.7
20260505063153 21 172 0.0 0.0 0.00 0.00 0.00 82 1010.4
20260505062649 21 198 1.6 3.2 0.00 0.00 0.00 82 1010.4
20260505062147 21 202 0.0 3.2 0.00 0.00 0.00 82 1010.5
20260505061644 21 176 0.0 1.6 0.00 0.00 0.00 81 1010.8
20260505061142 21 186 1.6 1.6 0.00 0.00 0.00 81 1010.9
20260505060639 21 180 1.6 1.6 0.00 0.00 0.00 81 1010.9
20260505060136 21 180 0.0 0.0 0.00 0.00 0.00 81 1010.9
20260505055631 21 178 0.0 3.2 0.00 0.00 0.00 81 1010.9
20260505055128 21 193 1.6 1.6 0.00 0.00 0.00 80 1010.7
20260505054626 21 181 1.6 3.2 0.00 0.00 0.00 80 1010.6
20260505054124 21 183 0.0 1.6 0.00 0.00 0.00 80 1010.8
20260505053620 21 204 0.0 3.2 0.00 0.00 0.00 80 1010.8
20260505053117 21 211 1.6 1.6 0.00 0.00 0.00 79 1010.9
20260505052614 21 203 0.0 3.2 0.00 0.00 0.00 79 1011.1
20260505052112 21 204 1.6 3.2 0.00 0.00 0.00 79 1011.3
20260505051608 21 183 0.0 1.6 0.00 0.00 0.00 79 1011.3
20260505051106 22 206 1.6 1.6 0.00 0.00 0.00 78 1011.2
20260505050604 22 193 1.6 3.2 0.00 0.00 0.00 78 1011.2
20260505041532 22 202 1.6 3.2 0.00 0.00 0.00 76 1011.3
20260505041029 22 186 1.6 3.2 0.00 0.00 0.00 75 1011.2
20260505040526 22 199 0.0 3.2 0.00 0.00 0.00 75 1011.2
20260505040024 22 206 1.6 3.2 0.00 0.00 0.00 75 1011.4
20260505035519 22 102 3.2 9.7 0.00 0.00 0.00 75 1011.5
20260505035016 22 234 1.6 1.6 0.00 0.00 0.00 75 1011.5
20260505034512 22 185 3.2 4.8 0.00 0.00 0.00 74 1011.6
20260505034010 22 216 1.6 4.8 0.00 0.00 0.00 74 1011.5
20260505033507 22 180 1.6 4.8 0.00 0.00 0.00 74 1011.5
20260505033005 22 188 1.6 3.2 0.00 0.00 0.00 73 1011.8
20260505032502 22 205 0.0 0.0 0.00 0.00 0.00 74 1011.7
20260505031958 22 210 3.2 4.8 0.00 0.00 0.00 73 1011.6
20260505031455 22 132 3.2 12.9 0.00 0.00 0.00 72 1011.6
20260505030952 22 208 3.2 9.7 0.00 0.00 0.00 72 1011.4
20260505030448 23 158 1.6 3.2 0.00 0.00 0.00 72 1011.5
20260505025943 23 202 0.0 6.4 0.00 0.00 0.00 72 1011.2
20260505025440 23 157 1.6 12.9 0.00 0.00 0.00 71 1011.5
20260505024939 23 207 0.0 3.2 0.00 0.00 0.00 71 1011.5
20260505024437 23 219 3.2 4.8 0.00 0.00 0.00 71 1011.6
20260505023934 23 233 4.8 6.4 0.00 0.00 0.00 70 1011.5
20260505023431 23 229 3.2 4.8 0.00 0.00 0.00 70 1011.6
20260505022928 23 207 1.6 9.7 0.00 0.00 0.00 70 1011.5
20260505022426 23 181 1.6 3.2 0.00 0.00 0.00 70 1011.3
20260505021922 23 222 3.2 4.8 0.00 0.00 0.00 70 1011.3
20260505021419 23 197 0.0 1.6 0.00 0.00 0.00 70 1011.2
20260505020914 23 222 3.2 4.8 0.00 0.00 0.00 69 1011.3
20260505020410 23 245 3.2 6.4 0.00 0.00 0.00 69 1011.1
20260505015908 23 196 1.6 11.3 0.00 0.00 0.00 69 1011.1
20260505015405 23 212 1.6 4.8 0.00 0.00 0.00 68 1011.2
20260505014902 23 185 3.2 4.8 0.00 0.00 0.00 68 1011.1
20260505014358 23 171 0.0 1.6 0.00 0.00 0.00 68 1011.1
20260505013855 23 113 4.8 4.8 0.00 0.00 0.00 67 1011.1
20260505013352 23 195 3.2 3.2 0.00 0.00 0.00 67 1010.9
20260505012851 24 231 1.6 4.8 0.00 0.00 0.00 67 1010.9
20260505012349 24 248 0.0 4.8 0.00 0.00 0.00 67 1010.9
20260505011844 24 199 0.0 3.2 0.00 0.00 0.00 67 1010.7
20260505011341 24 212 1.6 3.2 0.00 0.00 0.00 67 1010.8
20260505010837 24 120 1.6 3.2 0.00 0.00 0.00 66 1011.0
20260505010333 24 197 1.6 1.6 0.00 0.00 0.00 67 1010.9
20260505005830 24 208 0.0 3.2 0.00 0.00 0.00 66 1011.0
20260505005326 24 212 1.6 6.4 0.00 0.00 0.00 66 1010.8
20260505004824 24 208 3.2 4.8 0.00 0.00 0.00 66 1011.0
20260505004320 24 214 1.6 4.8 0.00 0.00 0.00 66 1010.9
20260505003818 24 218 1.6 6.4 0.00 0.00 0.00 65 1010.7
20260505003315 24 166 3.2 6.4 0.00 0.00 0.00 65 1010.6
20260505002811 25 211 1.6 1.6 0.00 0.00 0.00 65 1010.8
20260505002308 25 212 0.0 3.2 0.00 0.00 0.00 64 1010.7
20260505001806 25 154 3.2 6.4 0.00 0.00 0.00 64 1010.8
20260505001303 25 183 0.0 3.2 0.00 0.00 0.00 63 1010.9
20260505000800 25 190 1.6 4.8 0.00 0.00 0.00 63 1010.9
20260505000258 25 211 1.6 3.2 0.00 0.00 0.00 63 1011.0
20260504235754 25 208 3.2 3.2 0.00 0.00 0.00 62 1011.1
20260504235250 25 162 3.2 4.8 0.00 0.00 0.00 62 1010.9
20260504234748 25 206 4.8 6.4 0.00 0.00 0.00 62 1010.8
20260504234245 25 165 3.2 9.7 0.00 0.00 0.00 62 1011.1
20260504233741 25 251 0.0 4.8 0.00 0.00 0.00 62 1010.9
20260504233237 25 204 0.0 4.8 0.00 0.00 0.00 62 1011.2
20260504232734 25 196 1.6 1.6 0.00 0.00 0.00 61 1010.9
20260504232231 25 237 3.2 4.8 0.00 0.00 0.00 61 1011.0
20260504231728 26 171 1.6 3.2 0.00 0.00 0.00 61 1011.2
20260504231224 26 153 4.8 6.4 0.00 0.00 0.00 60 1011.2
20260504230720 26 181 1.6 6.4 0.00 0.00 0.00 60 1011.2
20260504230219 26 169 1.6 3.2 0.00 0.00 0.00 60 1011.6
20260504225718 26 214 4.8 12.9 0.00 0.00 0.00 60 1011.5
20260504225214 26 175 3.2 14.5 0.00 0.00 0.00 59 1011.4
20260504224711 26 200 3.2 4.8 0.00 0.00 0.00 58 1011.2
20260504224208 26 230 1.6 3.2 0.00 0.00 0.00 59 1011.3
20260504223704 26 163 4.8 11.3 0.00 0.00 0.00 57 1011.4
20260504223200 26 165 0.0 4.8 0.00 0.00 0.00 57 1011.7
20260504222657 26 206 3.2 4.8 0.00 0.00 0.00 56 1011.7
20260504222154 26 153 6.4 9.7 0.00 0.00 0.00 55 1011.5
20260504221651 27 223 1.6 3.2 0.00 0.00 0.00 54 1011.7
20260504221148 26 221 1.6 3.2 0.00 0.00 0.00 54 1011.6
20260504220644 26 281 3.2 9.7 0.00 0.00 0.00 54 1011.8
20260504220143 27 236 0.0 6.4 0.00 0.00 0.00 54 1011.6
20260504215638 27 156 3.2 6.4 0.00 0.00 0.00 53 1011.7
20260504215136 27 207 0.0 3.2 0.00 0.00 0.00 53 1011.6
20260504214632 27 150 4.8 11.3 0.00 0.00 0.00 52 1011.9
20260504214128 27 177 0.0 1.6 0.00 0.00 0.00 53 1012.1
20260504213625 27 173 4.8 4.8 0.00 0.00 0.00 51 1011.8
20260504213122 27 236 3.2 6.4 0.00 0.00 0.00 51 1012.0
20260504212618 27 216 1.6 1.6 0.00 0.00 0.00 52 1012.0
20260504212115 27 166 4.8 6.4 0.00 0.00 0.00 50 1012.1
20260504211612 27 206 1.6 1.6 0.00 0.00 0.00 51 1012.3
20260504211109 27 148 0.0 4.8 0.00 0.00 0.00 50 1012.2
20260504210607 27 224 0.0 1.6 0.00 0.00 0.00 51 1012.5
20260504205601 27 115 0.0 1.6 0.00 0.00 0.00 51 1012.5
20260504205058 28 154 3.2 9.7 0.00 0.00 0.00 49 1012.5
20260504204556 28 188 1.6 4.8 0.00 0.00 0.00 48 1012.7
20260504204055 28 238 3.2 4.8 0.00 0.00 0.00 49 1012.6
20260504203553 28 182 1.6 3.2 0.00 0.00 0.00 49 1012.7
20260504203050 28 207 1.6 4.8 0.00 0.00 0.00 49 1012.8
20260504202545 28 131 4.8 4.8 0.00 0.00 0.00 48 1012.8
20260504202042 27 231 1.6 3.2 0.00 0.00 0.00 50 1013.2
20260504201539 27 208 1.6 3.2 0.00 0.00 0.00 50 1013.3
20260504201037 27 166 3.2 3.2 0.00 0.00 0.00 50 1013.2
20260504200532 28 205 4.8 9.7 0.00 0.00 0.00 47 1013.3
20260504200030 28 226 1.6 4.8 0.00 0.00 0.00 47 1013.6
20260504195526 28 216 1.6 3.2 0.00 0.00 0.00 48 1013.5
20260504195023 28 238 1.6 3.2 0.00 0.00 0.00 48 1013.7
20260504194519 27 141 1.6 1.6 0.00 0.00 0.00 50 1013.6
20260504194015 28 159 0.0 6.4 0.00 0.00 0.00 50 1013.7
20260504193512 28 194 0.0 3.2 0.00 0.00 0.00 50 1013.7